Flag for Germany Weather past 2 weeks in Erftstadt, North Rhine-Westphalia, Germany

Now
57 °F

Refreshingly cool.


Feels Like: 55 °F
Forecast: 49 / 70 °F
Wind: 12 mph from Northeast

Location: Noervenich


UV Index: 3 (Moderate)

Visibility: N/A


Pressure: 29.89 "Hg

Humidity: 59%

Dew point: 43 °F

Location of ErftstadtLocation

Historic Weather in Erftstadt

°F

Erftstadt temperature yesterday

Maximum temperature yesterday: 55 °F (at 12:20 AM)
Minimum temperature yesterday: 43 °F (at 7:20 AM)
Average temperature yesterday: 48 °F

Past Weeks' High & Low Weather Summary

 TemperatureHumidityPressure
High72 °F (Apr 7, 4:20 PM)100% (Apr 5, 6:20 AM)30.45 "Hg (Apr 5, 6:20 AM)
Low32 °F (Apr 16, 5:20 AM)26% (Apr 17, 4:20 PM)29.77 "Hg (Apr 7, 10:20 PM)
Average51 °F69%30.09 "Hg
* Reported Apr 4 8:20 PM — Apr 19 8:20 PM, Erftstadt, Weather by CustomWeather, © 2014

Note: Actual official high and low records may vary slightly from our data, if they occured in-between our weather recording intervals... More about our weather records

Advertising

Historic Weather Conditions — Data for Previous 24 hours

 ConditionsComfort  
Time TempWeatherWind HumidityBarometerVisibility
8:20 PM
Apr 19
57 °FRefreshingly cool.12 mph59%29.89 "HgN/A
7:20 PM59 °FRefreshingly cool.13 mph55%29.86 "HgN/A
6:20 PM61 °FRefreshingly cool.13 mph52%29.89 "HgN/A
5:20 PM63 °FMild.10 mph42%29.89 "HgN/A
4:20 PM63 °FMild.9 mph42%29.92 "HgN/A
3:20 PM63 °FMild.12 mph39%29.95 "HgN/A
2:20 PM59 °FRefreshingly cool.7 mph39%29.98 "HgN/A
1:20 PM57 °FRefreshingly cool.8 mph41%30.01 "HgN/A
12:20 PM54 °FCool.8 mph51%30.01 "HgN/A
11:20 AM52 °FCool.6 mph54%30.04 "HgN/A
10:20 AM48 °FCool.6 mph71%30.04 "Hg5 mi
9:20 AM46 °FCool.3 mph76%30.04 "Hg5 mi
8:20 AM43 °FQuite cool.2 mph87%30.04 "Hg4 mi
7:20 AM39 °FChilly.2 mph93%30.01 "Hg4 mi
6:20 AM39 °FChilly.3 mph93%30.01 "Hg4 mi
5:20 AM41 °FPassing clouds.3 mph87%30.01 "HgN/A
4:20 AM39 °FPartly cloudy.3 mph93%29.98 "HgN/A
3:20 AM41 °FPartly cloudy.6 mph87%29.98 "HgN/A
2:20 AM43 °FPartly cloudy.5 mph81%30.01 "HgN/A
1:20 AM43 °FPartly cloudy.6 mph81%30.01 "HgN/A
12:20 AM43 °FPassing clouds.6 mph81%30.01 "HgN/A
11:20 PM
Apr 18
43 °FPassing clouds.7 mph76%30.01 "HgN/A
10:20 PM45 °FPassing clouds.7 mph71%29.98 "HgN/A
9:20 PM46 °FScattered clouds.8 mph66%29.98 "HgN/A
Weather by CustomWeather, © 2014

See weather overview